Time,TemperatureF,DewpointF,PressureIn,WindDirection,WindDirectionDegrees,WindSpeedMPH,WindSpeedGustMPH,Humidity,HourlyPrecipIn,Conditions,Clouds,dailyrainin,SoftwareType,DateUTC
2013-08-11 17:58:00,77.8,67.7,30.02,SW,225,0.0,0.0,71,0.00,,---,0.96,VWS V14.01,2013-08-11 21:58:00,
2013-08-11 17:59:00,77.8,67.7,30.02,SW,225,0.0,0.0,71,0.00,,---,0.00,VWS V14.01,2013-08-11 21:59:00,
2013-08-11 18:03:00,77.7,67.6,30.02,SW,225,0.0,0.0,71,0.00,,---,0.00,VWS V14.01,2013-08-11 22:03:00,
2013-08-11 18:04:00,77.7,67.6,30.02,SW,225,0.0,0.0,71,0.00,,---,0.00,VWS V14.01,2013-08-11 22:04:00,
2013-08-11 18:07:00,77.7,67.6,30.02,SW,225,0.0,0.0,71,0.00,,---,0.00,VWS V14.01,2013-08-11 22:07:00,
2013-08-11 18:09:00,77.7,67.6,30.03,SW,225,0.0,0.0,71,0.00,,---,0.00,VWS V14.01,2013-08-11 22:09:00,
2013-08-11 18:10:00,77.7,67.6,30.03,SW,225,0.0,0.0,71,0.00,,---,0.00,VWS V14.01,2013-08-11 22:10:00,
2013-08-11 18:12:00,77.3,67.2,30.02,SW,225,0.0,0.0,71,0.00,,---,0.00,VWS V14.01,2013-08-11 22:12:00,
2013-08-11 18:14:00,77.5,68.2,30.02,SW,225,0.0,0.0,73,0.00,,---,0.00,VWS V14.01,2013-08-11 22:14:00,
2013-08-11 18:15:00,77.5,68.2,30.02,SW,225,0.0,0.0,73,0.00,,---,0.00,VWS V14.01,2013-08-11 22:15:00,
2013-08-11 18:17:00,77.1,67.8,30.02,SW,225,0.0,0.0,73,0.00,,---,0.00,VWS V14.01,2013-08-11 22:17:00,
2013-08-11 18:20:00,76.9,68.0,30.02,SW,225,0.0,0.0,74,0.00,,---,0.00,VWS V14.01,2013-08-11 22:20:00,
2013-08-11 18:21:00,76.9,68.0,30.03,SW,225,0.0,0.0,74,0.00,,---,0.00,VWS V14.01,2013-08-11 22:21:00,
2013-08-11 18:23:00,76.9,68.0,30.03,SW,225,0.0,0.0,74,0.00,,---,0.00,VWS V14.01,2013-08-11 22:23:00,
2013-08-11 18:25:00,76.9,68.0,30.03,SW,225,0.0,0.0,74,0.00,,---,0.00,VWS V14.01,2013-08-11 22:25:00,
2013-08-11 18:27:00,76.8,67.9,30.04,SSW,202,0.0,0.0,74,0.00,,---,0.00,VWS V14.01,2013-08-11 22:27:00,
2013-08-11 18:28:00,76.8,67.9,30.04,SSW,202,0.0,0.0,74,0.00,,---,0.00,VWS V14.01,2013-08-11 22:28:00,
2013-08-11 18:31:00,76.4,67.5,30.03,SSW,202,0.0,0.0,74,0.00,,---,0.00,VWS V14.01,2013-08-11 22:31:00,
2013-08-11 18:34:00,76.4,67.5,30.03,SSW,202,0.0,0.0,74,0.00,,---,0.00,VWS V14.01,2013-08-11 22:34:00,
2013-08-11 18:36:00,76.4,67.9,30.03,SSW,202,0.0,0.0,75,0.00,,---,0.00,VWS V14.01,2013-08-11 22:36:00,
2013-08-11 18:37:00,76.2,67.7,30.03,SSW,202,0.0,0.0,75,0.00,,---,0.00,VWS V14.01,2013-08-11 22:37:00,
2013-08-11 18:39:00,76.2,67.7,30.04,SSW,202,0.0,0.0,75,0.00,,---,0.00,VWS V14.01,2013-08-11 22:39:00,
2013-08-11 18:40:00,76.2,67.7,30.04,SSW,202,0.0,0.0,75,0.00,,---,0.00,VWS V14.01,2013-08-11 22:40:00,
2013-08-11 18:42:00,76.0,67.5,30.04,SSW,202,0.0,0.0,75,0.00,,---,0.00,VWS V14.01,2013-08-11 22:42:00,
2013-08-11 18:45:00,76.0,67.5,30.03,SSW,202,0.0,0.0,75,0.00,,---,0.00,VWS V14.01,2013-08-11 22:45:00,
2013-08-11 18:46:00,76.0,67.5,30.03,SSW,202,0.0,0.0,75,0.00,,---,0.00,VWS V14.01,2013-08-11 22:46:00,
2013-08-11 18:47:00,76.0,67.5,30.03,SSW,202,0.0,0.0,75,0.00,,---,0.00,VWS V14.01,2013-08-11 22:47:00,
2013-08-11 18:51:00,75.9,67.8,30.03,SSW,202,0.0,0.0,76,0.00,,---,0.00,VWS V14.01,2013-08-11 22:51:00,
2013-08-11 18:52:00,75.3,67.2,30.03,SSW,202,0.0,0.0,76,0.00,,---,0.00,VWS V14.01,2013-08-11 22:52:00,
2013-08-11 18:53:00,75.3,67.2,30.03,SSW,202,0.0,0.0,76,0.00,,---,0.00,VWS V14.01,2013-08-11 22:53:00,
2013-08-11 18:56:00,75.7,68.4,30.04,SSW,202,0.0,0.0,78,0.00,,---,0.00,VWS V14.01,2013-08-11 22:56:00,
2013-08-11 18:57:00,75.7,68.4,30.04,SSW,202,0.0,0.0,78,0.00,,---,0.00,VWS V14.01,2013-08-11 22:57:00,
2013-08-11 18:58:00,75.7,68.4,30.04,SSW,202,0.0,0.0,78,0.00,,---,0.00,VWS V14.01,2013-08-11 22:58:00,
2013-08-11 19:02:00,75.3,68.0,30.04,SSW,202,0.0,0.0,78,0.00,,---,0.00,VWS V14.01,2013-08-11 23:02:00,
2013-08-11 19:03:00,75.3,68.0,30.04,SSW,202,0.0,0.0,78,0.00,,---,0.00,VWS V14.01,2013-08-11 23:03:00,
2013-08-11 19:04:00,75.3,68.0,30.04,SSW,202,0.0,0.0,78,0.00,,---,0.00,VWS V14.01,2013-08-11 23:04:00,
2013-08-11 19:07:00,75.3,68.0,30.04,SSW,202,0.0,0.0,78,0.00,,---,0.00,VWS V14.01,2013-08-11 23:07:00,
2013-08-11 19:08:00,75.3,68.0,30.04,SSW,202,0.0,0.0,78,0.00,,---,0.00,VWS V14.01,2013-08-11 23:08:00,
2013-08-11 19:09:00,75.3,68.3,30.04,SSW,202,0.0,0.0,79,0.00,,---,0.00,VWS V14.01,2013-08-11 23:09:00,
2013-08-11 19:12:00,75.1,68.2,30.04,SSW,202,0.0,0.0,79,0.00,,---,0.00,VWS V14.01,2013-08-11 23:12:00,
2013-08-11 19:13:00,75.1,68.2,30.04,SSW,202,0.0,0.0,79,0.00,,---,0.00,VWS V14.01,2013-08-11 23:13:00,
2013-08-11 19:14:00,75.1,68.2,30.04,SSW,202,0.0,0.0,79,0.00,,---,0.00,VWS V14.01,2013-08-11 23:14:00,
2013-08-11 19:15:00,75.1,68.2,30.04,SSW,202,0.0,0.0,79,0.00,,---,0.00,VWS V14.01,2013-08-11 23:15:00,
2013-08-11 19:17:00,75.1,68.2,30.03,SSW,202,0.0,0.0,79,0.00,,---,0.00,VWS V14.01,2013-08-11 23:17:00,
2013-08-11 19:18:00,75.1,68.2,30.03,SSW,202,0.0,0.0,79,0.00,,---,0.00,VWS V14.01,2013-08-11 23:18:00,
2013-08-11 19:20:00,75.1,68.2,30.03,SSW,202,0.0,0.0,79,0.00,,---,0.00,VWS V14.01,2013-08-11 23:20:00,
2013-08-11 19:23:00,75.1,68.2,30.03,SSW,202,0.0,0.0,79,0.00,,---,0.00,VWS V14.01,2013-08-11 23:23:00,
2013-08-11 19:25:00,75.0,68.1,30.03,SSW,202,0.0,0.0,79,0.00,,---,0.00,VWS V14.01,2013-08-11 23:25:00,
2013-08-11 19:26:00,74.8,67.9,30.04,SSW,202,0.0,0.0,79,0.00,,---,0.00,VWS V14.01,2013-08-11 23:26:00,
2013-08-11 19:28:00,74.8,67.9,30.04,SSW,202,0.0,0.0,79,0.00,,---,0.00,VWS V14.01,2013-08-11 23:28:00,
2013-08-11 19:30:00,75.0,68.4,30.04,SSW,202,0.0,0.0,80,0.00,,---,0.00,VWS V14.01,2013-08-11 23:30:00,
2013-08-11 19:31:00,75.0,68.4,30.04,SSW,202,0.0,0.0,80,0.00,,---,0.00,VWS V14.01,2013-08-11 23:31:00,
2013-08-11 19:34:00,74.8,67.9,30.04,SSW,202,0.0,0.0,79,0.00,,---,0.00,VWS V14.01,2013-08-11 23:34:00,
2013-08-11 19:36:00,74.8,67.9,30.04,SSW,202,0.0,0.0,79,0.00,,---,0.00,VWS V14.01,2013-08-11 23:36:00,
2013-08-11 19:39:00,74.6,68.0,30.04,SSW,202,0.0,0.0,80,0.00,,---,0.00,VWS V14.01,2013-08-11 23:39:00,
2013-08-11 19:41:00,74.6,68.0,30.04,SSW,202,0.0,0.0,80,0.00,,---,0.00,VWS V14.01,2013-08-11 23:41:00,
2013-08-11 19:42:00,74.6,68.0,30.04,SSW,202,0.0,0.0,80,0.00,,---,0.00,VWS V14.01,2013-08-11 23:42:00,
2013-08-11 19:45:00,74.6,68.0,30.04,SSW,202,0.0,0.0,80,0.00,,---,0.00,VWS V14.01,2013-08-11 23:45:00,
2013-08-11 19:46:00,74.6,68.0,30.04,SSW,202,0.0,0.0,80,0.00,,---,0.00,VWS V14.01,2013-08-11 23:46:00,
2013-08-11 19:48:00,74.4,67.8,30.04,SSW,202,0.0,0.0,80,0.00,,---,0.00,VWS V14.01,2013-08-11 23:48:00,
2013-08-11 19:50:00,74.4,67.8,30.04,SSW,202,0.0,0.0,80,0.00,,---,0.00,VWS V14.01,2013-08-11 23:50:00,
2013-08-11 19:51:00,74.1,67.5,30.04,SSW,202,0.0,0.0,80,0.00,,---,0.00,VWS V14.01,2013-08-11 23:51:00,
2013-08-11 19:53:00,74.1,67.5,30.04,SSW,202,0.0,0.0,80,0.00,,---,0.00,VWS V14.01,2013-08-11 23:53:00,
2013-08-11 19:56:00,74.4,67.8,30.04,SSW,202,0.0,0.0,80,0.00,,---,0.00,VWS V14.01,2013-08-11 23:56:00,
2013-08-11 19:57:00,74.4,67.8,30.04,SSW,202,0.0,0.0,80,0.00,,---,0.00,VWS V14.01,2013-08-11 23:57:00,
2013-08-11 19:59:00,74.1,67.5,30.04,SSW,202,0.0,0.0,80,0.00,,---,0.00,VWS V14.01,2013-08-11 23:59:00,
2013-08-11 20:01:00,74.1,67.5,30.04,SSW,202,0.0,0.0,80,0.00,,---,0.00,VWS V14.01,2013-08-12 00:01:00,
2013-08-11 20:02:00,74.1,67.5,30.04,SSW,202,0.0,0.0,80,0.00,,---,0.00,VWS V14.01,2013-08-12 00:02:00,
2013-08-11 20:05:00,74.4,68.2,30.04,SSW,202,0.0,0.0,81,0.00,,---,0.00,VWS V14.01,2013-08-12 00:05:00,
2013-08-11 20:07:00,74.4,67.8,30.04,SSW,202,0.0,0.0,80,0.00,,---,0.00,VWS V14.01,2013-08-12 00:07:00,
2013-08-11 20:10:00,74.1,67.5,30.03,SSW,202,0.0,0.0,80,0.00,,---,0.00,VWS V14.01,2013-08-12 00:10:00,
2013-08-11 20:12:00,74.2,67.6,30.03,SSW,202,0.0,0.0,80,0.00,,---,0.00,VWS V14.01,2013-08-12 00:12:00,
2013-08-11 20:13:00,74.2,67.6,30.03,SSW,202,0.0,0.0,80,0.00,,---,0.00,VWS V14.01,2013-08-12 00:13:00,
2013-08-11 20:15:00,74.2,67.6,30.03,SSW,202,0.0,0.0,80,0.00,,---,0.00,VWS V14.01,2013-08-12 00:15:00,
2013-08-11 20:18:00,74.2,67.6,30.03,SSW,202,0.0,0.0,80,0.00,,---,0.00,VWS V14.01,2013-08-12 00:18:00,
2013-08-11 20:19:00,73.9,67.3,30.03,SSW,202,0.0,0.0,80,0.00,,---,0.00,VWS V14.01,2013-08-12 00:19:00,
2013-08-11 20:20:00,73.9,67.3,30.03,SSW,202,0.0,0.0,80,0.00,,---,0.00,VWS V14.01,2013-08-12 00:20:00,
2013-08-11 20:24:00,73.9,67.7,30.04,SSW,202,0.0,0.0,81,0.00,,---,0.00,VWS V14.01,2013-08-12 00:24:00,
2013-08-11 20:25:00,73.9,67.7,30.04,SSW,202,0.0,0.0,81,0.00,,---,0.00,VWS V14.01,2013-08-12 00:25:00,
2013-08-11 20:26:00,73.9,67.7,30.04,SSW,202,0.0,0.0,81,0.00,,---,0.00,VWS V14.01,2013-08-12 00:26:00,
2013-08-11 20:29:00,74.1,67.9,30.04,SSW,202,0.0,0.0,81,0.00,,---,0.00,VWS V14.01,2013-08-12 00:29:00,
2013-08-11 20:30:00,74.1,67.9,30.04,SSW,202,0.0,0.0,81,0.00,,---,0.00,VWS V14.01,2013-08-12 00:30:00,
2013-08-11 20:31:00,74.1,67.9,30.03,North,0,0.0,0.0,81,0.00,,---,0.00,VWS V14.01,2013-08-12 00:31:00,
2013-08-11 20:35:00,73.9,67.3,30.04,SSW,202,0.0,0.0,80,0.00,,---,0.00,VWS V14.01,2013-08-12 00:35:00,
2013-08-11 20:36:00,74.1,68.3,30.04,SSW,202,0.0,0.0,82,0.00,,---,0.00,VWS V14.01,2013-08-12 00:36:00,
2013-08-11 20:40:00,74.1,67.9,30.04,SSW,202,0.0,0.0,81,0.00,,---,0.00,VWS V14.01,2013-08-12 00:40:00,
2013-08-11 20:41:00,74.1,67.9,30.04,SSW,202,0.0,0.0,81,0.00,,---,0.00,VWS V14.01,2013-08-12 00:41:00,
2013-08-11 20:42:00,74.1,67.9,30.04,SSW,202,0.0,0.0,81,0.00,,---,0.00,VWS V14.01,2013-08-12 00:42:00,
2013-08-11 20:46:00,74.1,68.3,30.04,SSW,202,0.0,0.0,82,0.00,,---,0.00,VWS V14.01,2013-08-12 00:46:00,
2013-08-11 20:48:00,74.1,67.9,30.04,SSW,202,0.0,0.0,81,0.00,,---,0.00,VWS V14.01,2013-08-12 00:48:00,
2013-08-11 20:49:00,74.1,67.9,30.04,SSW,202,0.0,0.0,81,0.00,,---,0.00,VWS V14.01,2013-08-12 00:49:00,
2013-08-11 20:52:00,73.9,67.7,30.04,SSW,202,0.0,0.0,81,0.00,,---,0.00,VWS V14.01,2013-08-12 00:52:00,
2013-08-11 20:53:00,74.1,68.3,30.04,SSW,202,0.0,0.0,82,0.00,,---,0.00,VWS V14.01,2013-08-12 00:53:00,
2013-08-11 20:54:00,74.1,68.3,30.04,SSW,202,0.0,0.0,82,0.00,,---,0.00,VWS V14.01,2013-08-12 00:54:00,
2013-08-11 20:57:00,74.1,67.9,30.04,SSW,202,0.0,0.0,81,0.00,,---,0.00,VWS V14.01,2013-08-12 00:57:00,
2013-08-11 20:58:00,73.9,67.7,30.04,SSW,202,0.0,0.0,81,0.00,,---,0.00,VWS V14.01,2013-08-12 00:58:00,
2013-08-11 20:59:00,73.9,67.7,30.03,SSW,202,0.0,0.0,81,0.00,,---,0.00,VWS V14.01,2013-08-12 00:59:00,
2013-08-11 21:02:00,74.1,68.3,30.04,SSW,202,0.0,0.0,82,0.00,,---,0.00,VWS V14.01,2013-08-12 01:02:00,
2013-08-11 21:04:00,73.9,67.7,30.03,SSW,202,0.0,0.0,81,0.00,,---,0.00,VWS V14.01,2013-08-12 01:04:00,
2013-08-11 21:05:00,73.9,67.7,30.03,SSW,202,0.0,0.0,81,0.00,,---,0.00,VWS V14.01,2013-08-12 01:05:00,
2013-08-11 21:07:00,74.1,68.3,30.04,SSW,202,0.0,0.0,82,0.00,,---,0.00,VWS V14.01,2013-08-12 01:07:00,
2013-08-11 21:09:00,73.9,67.7,30.03,SSW,202,0.0,0.0,81,0.00,,---,0.00,VWS V14.01,2013-08-12 01:09:00,
2013-08-11 21:10:00,73.9,68.1,30.03,SSW,202,0.0,0.0,82,0.00,,---,0.00,VWS V14.01,2013-08-12 01:10:00,
2013-08-11 21:13:00,74.1,68.6,30.04,SSW,202,0.0,0.0,83,0.00,,---,0.00,VWS V14.01,2013-08-12 01:13:00,
2013-08-11 21:15:00,74.1,68.3,30.04,SSW,202,0.0,0.0,82,0.00,,---,0.00,VWS V14.01,2013-08-12 01:15:00,
2013-08-11 21:16:00,74.1,68.3,30.03,SSW,202,0.0,0.0,82,0.00,,---,0.00,VWS V14.01,2013-08-12 01:16:00,
2013-08-11 21:18:00,74.1,68.6,30.03,SSW,202,0.0,0.0,83,0.00,,---,0.00,VWS V14.01,2013-08-12 01:18:00,
2013-08-11 21:20:00,74.1,68.6,30.03,SSW,202,0.0,0.0,83,0.00,,---,0.00,VWS V14.01,2013-08-12 01:20:00,
2013-08-11 21:23:00,74.1,69.0,30.03,SSW,202,0.0,0.0,84,0.00,,---,0.00,VWS V14.01,2013-08-12 01:23:00,
2013-08-11 21:24:00,74.1,69.0,30.03,SSW,202,0.0,0.0,84,0.00,,---,0.00,VWS V14.01,2013-08-12 01:24:00,
2013-08-11 21:25:00,74.1,68.6,30.04,SSW,202,0.0,0.0,83,0.00,,---,0.00,VWS V14.01,2013-08-12 01:25:00,
2013-08-11 21:26:00,74.1,68.6,30.04,SSW,202,0.0,0.0,83,0.00,,---,0.00,VWS V14.01,2013-08-12 01:26:00,
2013-08-11 21:29:00,73.9,68.1,30.04,SSW,202,0.0,0.0,82,0.00,,---,0.00,VWS V14.01,2013-08-12 01:29:00,
2013-08-11 21:30:00,74.1,69.0,30.03,SSW,202,0.0,0.0,84,0.00,,---,0.00,VWS V14.01,2013-08-12 01:30:00,
2013-08-11 21:31:00,74.1,69.0,30.03,SSW,202,0.0,0.0,84,0.00,,---,0.00,VWS V14.01,2013-08-12 01:31:00,
2013-08-11 21:35:00,74.1,68.6,30.03,SSW,202,0.0,0.0,83,0.00,,---,0.00,VWS V14.01,2013-08-12 01:35:00,
2013-08-11 21:36:00,74.1,68.6,30.04,SSW,202,0.0,0.0,83,0.00,,---,0.00,VWS V14.01,2013-08-12 01:36:00,
2013-08-11 21:37:00,74.1,68.6,30.04,SSW,202,0.0,0.0,83,0.00,,---,0.00,VWS V14.01,2013-08-12 01:37:00,
2013-08-11 21:40:00,74.1,68.6,30.04,SSW,202,0.0,0.0,83,0.00,,---,0.00,VWS V14.01,2013-08-12 01:40:00,
2013-08-11 21:42:00,74.1,68.6,30.04,SSW,202,0.0,0.0,83,0.00,,---,0.00,VWS V14.01,2013-08-12 01:42:00,
2013-08-11 21:45:00,73.9,68.8,30.04,SSW,202,0.0,0.0,84,0.00,,---,0.00,VWS V14.01,2013-08-12 01:45:00,
2013-08-11 21:46:00,73.9,68.8,30.04,SSW,202,0.0,0.0,84,0.00,,---,0.00,VWS V14.01,2013-08-12 01:46:00,
2013-08-11 21:47:00,73.9,68.8,30.04,SSW,202,0.0,0.0,84,0.00,,---,0.00,VWS V14.01,2013-08-12 01:47:00,
2013-08-11 21:48:00,73.9,68.8,30.04,SSW,202,0.0,0.0,84,0.00,,---,0.00,VWS V14.01,2013-08-12 01:48:00,
2013-08-11 21:51:00,73.9,68.8,30.04,SSW,202,0.0,0.0,84,0.00,,---,0.00,VWS V14.01,2013-08-12 01:51:00,
2013-08-11 21:52:00,73.9,68.8,30.04,SSW,202,0.0,0.0,84,0.00,,---,0.00,VWS V14.01,2013-08-12 01:52:00,
2013-08-11 21:53:00,73.5,68.4,30.04,SSW,202,0.0,0.0,84,0.00,,---,0.00,VWS V14.01,2013-08-12 01:53:00,
2013-08-11 21:56:00,74.1,69.0,30.04,SSW,202,0.0,0.0,84,0.00,,---,0.00,VWS V14.01,2013-08-12 01:56:00,
2013-08-11 21:57:00,74.1,68.6,30.04,SSW,202,0.0,0.0,83,0.00,,---,0.00,VWS V14.01,2013-08-12 01:57:00,
2013-08-11 21:58:00,73.9,68.4,30.04,SSW,202,0.0,0.0,83,0.00,,---,0.00,VWS V14.01,2013-08-12 01:58:00,
2013-08-11 22:01:00,73.9,68.4,30.04,SSW,202,0.0,0.0,83,0.00,,---,0.00,VWS V14.01,2013-08-12 02:01:00,
2013-08-11 22:03:00,73.9,69.1,30.04,SSW,202,0.0,0.0,85,0.00,,---,0.00,VWS V14.01,2013-08-12 02:03:00,
2013-08-11 22:04:00,73.5,68.7,30.04,SSW,202,0.0,0.0,85,0.00,,---,0.00,VWS V14.01,2013-08-12 02:04:00,
2013-08-11 22:06:00,73.9,68.8,30.05,SSW,202,0.0,0.0,84,0.00,,---,0.00,VWS V14.01,2013-08-12 02:06:00,
2013-08-11 22:08:00,73.7,68.9,30.04,SSW,202,0.0,0.0,85,0.00,,---,0.00,VWS V14.01,2013-08-12 02:08:00,
2013-08-11 22:09:00,73.5,68.4,30.04,SSW,202,0.0,0.0,84,0.00,,---,0.00,VWS V14.01,2013-08-12 02:09:00,
2013-08-11 22:12:00,73.5,68.7,30.05,SSW,202,0.0,0.0,85,0.00,,---,0.00,VWS V14.01,2013-08-12 02:12:00,
2013-08-11 22:13:00,73.5,68.7,30.05,SSW,202,0.0,0.0,85,0.00,,---,0.00,VWS V14.01,2013-08-12 02:13:00,
2013-08-11 22:15:00,73.9,69.1,30.05,SSW,202,0.0,0.0,85,0.00,,---,0.00,VWS V14.01,2013-08-12 02:15:00,
2013-08-11 22:18:00,73.5,68.7,30.05,SSW,202,0.0,0.0,85,0.00,,---,0.00,VWS V14.01,2013-08-12 02:18:00,
2013-08-11 22:19:00,73.7,68.9,30.05,SSW,202,0.0,0.0,85,0.00,,---,0.00,VWS V14.01,2013-08-12 02:19:00,
2013-08-11 22:21:00,73.9,69.1,30.05,SSW,202,0.0,0.0,85,0.00,,---,0.00,VWS V14.01,2013-08-12 02:21:00,
2013-08-11 22:24:00,73.9,69.1,30.05,SSW,202,0.0,0.0,85,0.00,,---,0.00,VWS V14.01,2013-08-12 02:24:00,
2013-08-11 22:25:00,73.9,69.1,30.05,SSW,202,0.0,0.0,85,0.00,,---,0.00,VWS V14.01,2013-08-12 02:25:00,
2013-08-11 22:29:00,73.7,68.9,30.05,SSW,202,0.0,0.0,85,0.00,,---,0.00,VWS V14.01,2013-08-12 02:29:00,
2013-08-11 22:30:00,73.9,69.1,30.05,SSW,202,0.0,0.0,85,0.00,,---,0.00,VWS V14.01,2013-08-12 02:30:00,
2013-08-11 22:31:00,73.9,69.1,30.05,SSW,202,0.0,0.0,85,0.00,,---,0.00,VWS V14.01,2013-08-12 02:31:00,
2013-08-11 22:34:00,73.9,69.1,30.05,SSW,202,0.0,0.0,85,0.00,,---,0.00,VWS V14.01,2013-08-12 02:34:00,
2013-08-11 22:35:00,73.9,69.1,30.05,SSW,202,0.0,0.0,85,0.00,,---,0.00,VWS V14.01,2013-08-12 02:35:00,
2013-08-11 22:36:00,73.5,68.7,30.05,SSW,202,0.0,0.0,85,0.00,,---,0.00,VWS V14.01,2013-08-12 02:36:00,
2013-08-11 22:40:00,73.7,68.9,30.05,SSW,202,0.0,0.0,85,0.00,,---,0.00,VWS V14.01,2013-08-12 02:40:00,
2013-08-11 22:41:00,73.7,68.9,30.05,SSW,202,0.0,0.0,85,0.00,,---,0.00,VWS V14.01,2013-08-12 02:41:00,
2013-08-11 22:42:00,73.7,68.9,30.05,SSW,202,0.0,0.0,85,0.00,,---,0.00,VWS V14.01,2013-08-12 02:42:00,
2013-08-11 22:45:00,73.7,68.9,30.05,SSW,202,0.0,0.0,85,0.00,,---,0.00,VWS V14.01,2013-08-12 02:45:00,
2013-08-11 22:46:00,73.7,68.9,30.05,SSW,202,0.0,0.0,85,0.00,,---,0.00,VWS V14.01,2013-08-12 02:46:00,
2013-08-11 22:47:00,73.5,68.7,30.05,SSW,202,0.0,0.0,85,0.00,,---,0.00,VWS V14.01,2013-08-12 02:47:00,
2013-08-11 22:50:00,73.5,68.7,30.05,SSW,202,0.0,0.0,85,0.00,,---,0.00,VWS V14.01,2013-08-12 02:50:00,
2013-08-11 22:51:00,73.5,68.7,30.05,SSW,202,0.0,0.0,85,0.00,,---,0.00,VWS V14.01,2013-08-12 02:51:00,
2013-08-11 22:52:00,73.2,68.1,30.05,SSW,202,0.0,0.0,84,0.00,,---,0.00,VWS V14.01,2013-08-12 02:52:00,
2013-08-11 22:53:00,73.2,68.1,30.05,SSW,202,0.0,0.0,84,0.00,,---,0.00,VWS V14.01,2013-08-12 02:53:00,
2013-08-11 22:56:00,73.3,68.5,30.05,SSW,202,0.0,0.0,85,0.00,,---,0.00,VWS V14.01,2013-08-12 02:56:00,
2013-08-11 22:58:00,73.3,68.5,30.05,SSW,202,0.0,0.0,85,0.00,,---,0.00,VWS V14.01,2013-08-12 02:58:00,
2013-08-11 22:59:00,73.5,68.7,30.05,SSW,202,0.0,0.0,85,0.00,,---,0.00,VWS V14.01,2013-08-12 02:59:00,
2013-08-11 23:01:00,73.5,68.7,30.05,SSW,202,0.0,0.0,85,0.00,,---,0.00,VWS V14.01,2013-08-12 03:01:00,
2013-08-11 23:02:00,73.5,68.7,30.05,SSW,202,0.0,0.0,85,0.00,,---,0.00,VWS V14.01,2013-08-12 03:02:00,
2013-08-11 23:04:00,73.5,68.7,30.05,SSW,202,0.0,0.0,85,0.00,,---,0.00,VWS V14.01,2013-08-12 03:04:00,
2013-08-11 23:07:00,73.3,68.5,30.05,SSW,202,0.0,0.0,85,0.00,,---,0.00,VWS V14.01,2013-08-12 03:07:00,
2013-08-11 23:09:00,73.3,68.5,30.05,SSW,202,0.0,0.0,85,0.00,,---,0.00,VWS V14.01,2013-08-12 03:09:00,
2013-08-11 23:12:00,73.3,68.5,30.05,SSW,202,0.0,0.0,85,0.00,,---,0.00,VWS V14.01,2013-08-12 03:12:00,
2013-08-11 23:14:00,73.3,68.5,30.05,SSW,202,0.0,0.0,85,0.00,,---,0.00,VWS V14.01,2013-08-12 03:14:00,
2013-08-11 23:16:00,73.3,68.5,30.06,SSW,202,0.0,0.0,85,0.00,,---,0.00,VWS V14.01,2013-08-12 03:16:00,
2013-08-11 23:18:00,73.3,68.5,30.06,SSW,202,0.0,0.0,85,0.00,,---,0.00,VWS V14.01,2013-08-12 03:18:00,
2013-08-11 23:19:00,73.3,68.5,30.06,SSW,202,0.0,0.0,85,0.00,,---,0.00,VWS V14.01,2013-08-12 03:19:00,
2013-08-11 23:20:00,72.8,68.0,30.06,SSW,202,0.0,0.0,85,0.00,,---,0.00,VWS V14.01,2013-08-12 03:20:00,
2013-08-11 23:21:00,72.8,68.0,30.06,SSW,202,0.0,0.0,85,0.00,,---,0.00,VWS V14.01,2013-08-12 03:21:00,
2013-08-11 23:24:00,73.2,68.4,30.05,SSW,202,0.0,0.0,85,0.00,,---,0.00,VWS V14.01,2013-08-12 03:24:00,
2013-08-11 23:26:00,73.2,68.8,30.06,SSW,202,0.0,0.0,86,0.00,,---,0.00,VWS V14.01,2013-08-12 03:26:00,
2013-08-11 23:27:00,73.2,68.8,30.06,SSW,202,0.0,0.0,86,0.00,,---,0.00,VWS V14.01,2013-08-12 03:27:00,
2013-08-11 23:29:00,72.6,67.8,30.06,SSW,202,0.0,0.0,85,0.00,,---,0.00,VWS V14.01,2013-08-12 03:29:00,
2013-08-11 23:32:00,72.6,67.8,30.06,SSW,202,0.0,0.0,85,0.00,,---,0.00,VWS V14.01,2013-08-12 03:32:00,
2013-08-11 23:33:00,72.6,67.8,30.06,SSW,202,0.0,0.0,85,0.00,,---,0.00,VWS V14.01,2013-08-12 03:33:00,
2013-08-11 23:34:00,72.6,67.8,30.06,SSW,202,0.0,0.0,85,0.00,,---,0.00,VWS V14.01,2013-08-12 03:34:00,
2013-08-11 23:37:00,73.2,68.4,30.06,SSW,202,0.0,0.0,85,0.00,,---,0.00,VWS V14.01,2013-08-12 03:37:00,
2013-08-11 23:38:00,73.2,68.4,30.06,SSW,202,0.0,0.0,85,0.00,,---,0.00,VWS V14.01,2013-08-12 03:38:00,
2013-08-11 23:39:00,72.6,67.8,30.06,SSW,202,0.0,0.0,85,0.00,,---,0.00,VWS V14.01,2013-08-12 03:39:00,
2013-08-11 23:43:00,72.8,68.4,30.05,SSW,202,0.0,0.0,86,0.00,,---,0.00,VWS V14.01,2013-08-12 03:43:00,
2013-08-11 23:45:00,72.8,68.4,30.06,SSW,202,0.0,0.0,86,0.00,,---,0.00,VWS V14.01,2013-08-12 03:45:00,
2013-08-11 23:49:00,72.8,68.4,30.05,SSW,202,0.0,0.0,86,0.00,,---,0.00,VWS V14.01,2013-08-12 03:49:00,
2013-08-11 23:50:00,72.8,68.4,30.05,SSW,202,0.0,0.0,86,0.00,,---,0.00,VWS V14.01,2013-08-12 03:50:00,
2013-08-11 23:52:00,72.6,67.8,30.05,SSW,202,0.0,0.0,85,0.00,,---,0.00,VWS V14.01,2013-08-12 03:52:00,
2013-08-11 23:54:00,72.6,67.8,30.05,SSW,202,0.0,0.0,85,0.00,,---,0.00,VWS V14.01,2013-08-12 03:54:00,
2013-08-11 23:55:00,72.8,68.4,30.05,SSW,202,0.0,0.0,86,0.00,,---,0.00,VWS V14.01,2013-08-12 03:55:00,
2013-08-11 23:59:00,72.8,68.4,30.05,SSW,202,0.0,0.0,86,0.00,,---,0.00,VWS V14.01,2013-08-12 03:59:00,